Time,TemperatureF,DewpointF,PressureIn,WindDirection,WindDirectionDegrees,WindSpeedMPH,WindSpeedGustMPH,Humidity,HourlyPrecipIn,Conditions,Clouds,dailyrainin,SoftwareType,DateUTC
2013-01-27 00:13:00,39.8,29.0,30.28,NW,322,0.0,0.0,65,0.00,,,0.00,weatherlink.com 1.10,2013-01-27 05:13:00,
2013-01-27 00:28:00,39.3,29.0,30.28,NW,322,0.0,0.0,66,0.00,,,0.00,weatherlink.com 1.10,2013-01-27 05:28:00,
2013-01-27 00:43:00,38.8,29.0,30.28,NW,322,0.0,0.0,67,0.00,,,0.00,weatherlink.com 1.10,2013-01-27 05:43:00,
2013-01-27 00:58:00,38.9,29.0,30.29,NW,322,1.0,1.0,67,0.00,,,0.00,weatherlink.com 1.10,2013-01-27 05:58:00,
2013-01-27 01:13:00,38.8,29.0,30.29,NW,322,0.0,0.0,67,0.00,,,0.00,weatherlink.com 1.10,2013-01-27 06:13:00,
2013-01-27 01:28:00,39.0,29.0,30.29,NW,322,0.0,1.0,67,0.00,,,0.00,weatherlink.com 1.10,2013-01-27 06:28:00,
2013-01-27 01:43:00,39.4,29.0,30.29,NW,322,0.0,0.0,67,0.00,,,0.00,weatherlink.com 1.10,2013-01-27 06:43:00,
2013-01-27 01:59:00,39.6,29.0,30.30,NW,322,0.0,0.0,67,0.00,,,0.00,weatherlink.com 1.10,2013-01-27 06:59:00,
2013-01-27 02:13:00,39.8,30.0,30.30,NW,322,0.0,1.0,67,0.00,,,0.00,weatherlink.com 1.10,2013-01-27 07:13:00,
2013-01-27 02:28:00,39.8,30.0,30.31,NW,322,0.0,0.0,67,0.00,,,0.00,weatherlink.com 1.10,2013-01-27 07:28:00,
2013-01-27 02:43:00,40.1,30.0,30.30,NW,322,0.0,1.0,67,0.00,,,0.00,weatherlink.com 1.10,2013-01-27 07:43:00,
2013-01-27 02:58:00,40.4,30.0,30.30,NW,322,0.0,2.0,66,0.00,,,0.00,weatherlink.com 1.10,2013-01-27 07:58:00,
2013-01-27 03:13:00,40.9,29.0,30.30,NNE,17,2.0,4.0,64,0.00,,,0.00,weatherlink.com 1.10,2013-01-27 08:13:00,
2013-01-27 03:28:00,41.4,30.0,30.31,NNE,30,1.0,4.0,64,0.00,,,0.00,weatherlink.com 1.10,2013-01-27 08:28:00,
2013-01-27 03:43:00,41.5,30.0,30.31,NNE,27,0.0,7.0,64,0.00,,,0.00,weatherlink.com 1.10,2013-01-27 08:43:00,
2013-01-27 03:58:00,41.5,30.0,30.31,ENE,67,0.0,8.0,64,0.00,,,0.00,weatherlink.com 1.10,2013-01-27 08:58:00,
2013-01-27 04:13:00,41.4,30.0,30.31,ENE,70,0.0,4.0,65,0.00,,,0.00,weatherlink.com 1.10,2013-01-27 09:13:00,
2013-01-27 04:28:00,41.2,30.0,30.32,ENE,70,3.0,3.0,65,0.00,,,0.00,weatherlink.com 1.10,2013-01-27 09:28:00,
2013-01-27 04:43:00,41.2,31.0,30.32,ENE,64,0.0,5.0,66,0.00,,,0.00,weatherlink.com 1.10,2013-01-27 09:43:00,
2013-01-27 04:58:00,41.3,31.0,30.33,NE,42,5.0,5.0,66,0.00,,,0.00,weatherlink.com 1.10,2013-01-27 09:58:00,
2013-01-27 05:14:00,41.5,30.0,30.34,NNE,24,4.0,9.0,65,0.00,,,0.00,weatherlink.com 1.10,2013-01-27 10:14:00,
2013-01-27 05:28:00,41.5,31.0,30.34,ESE,107,0.0,8.0,66,0.00,,,0.00,weatherlink.com 1.10,2013-01-27 10:28:00,
2013-01-27 05:44:00,41.4,31.0,30.34,ENE,66,0.0,6.0,66,0.00,,,0.00,weatherlink.com 1.10,2013-01-27 10:44:00,
2013-01-27 05:59:00,41.2,31.0,30.34,ENE,59,7.0,10.0,66,0.00,,,0.00,weatherlink.com 1.10,2013-01-27 10:59:00,
2013-01-27 06:14:00,41.0,30.0,30.35,ENE,63,3.0,12.0,66,0.00,,,0.00,weatherlink.com 1.10,2013-01-27 11:14:00,
2013-01-27 06:29:00,40.7,30.0,30.37,ENE,76,4.0,13.0,67,0.00,,,0.00,weatherlink.com 1.10,2013-01-27 11:29:00,
2013-01-27 06:44:00,40.6,30.0,30.38,ENE,70,3.0,9.0,67,0.00,,,0.00,weatherlink.com 1.10,2013-01-27 11:44:00,
2013-01-27 06:59:00,40.3,30.0,30.39,ENE,59,2.0,11.0,67,0.00,,,0.00,weatherlink.com 1.10,2013-01-27 11:59:00,
2013-01-27 07:14:00,40.0,30.0,30.39,East,80,5.0,14.0,68,0.00,,,0.00,weatherlink.com 1.10,2013-01-27 12:14:00,
2013-01-27 07:29:00,39.8,30.0,30.39,NE,50,4.0,13.0,68,0.00,,,0.00,weatherlink.com 1.10,2013-01-27 12:29:00,
2013-01-27 07:44:00,39.6,30.0,30.39,ENE,57,4.0,9.0,68,0.00,,,0.00,weatherlink.com 1.10,2013-01-27 12:44:00,
2013-01-27 07:59:00,39.4,30.0,30.41,East,89,0.0,10.0,68,0.00,,,0.00,weatherlink.com 1.10,2013-01-27 12:59:00,
2013-01-27 08:14:00,39.1,29.0,30.41,East,91,2.0,10.0,68,0.00,,,0.00,weatherlink.com 1.10,2013-01-27 13:14:00,
2013-01-27 08:29:00,39.2,29.0,30.43,ENE,68,10.0,11.0,68,0.00,,,0.00,weatherlink.com 1.10,2013-01-27 13:29:00,
2013-01-27 08:44:00,39.4,30.0,30.43,East,80,7.0,12.0,68,0.00,,,0.00,weatherlink.com 1.10,2013-01-27 13:44:00,
2013-01-27 08:59:00,39.7,30.0,30.43,ENE,75,5.0,12.0,68,0.00,,,0.00,weatherlink.com 1.10,2013-01-27 13:59:00,
2013-01-27 09:16:00,40.2,30.0,30.44,ESE,111,9.0,14.0,67,0.00,,,0.00,weatherlink.com 1.10,2013-01-27 14:16:00,
2013-01-27 09:29:00,40.1,30.0,30.44,ENE,60,4.0,12.0,67,0.00,,,0.00,weatherlink.com 1.10,2013-01-27 14:29:00,
2013-01-27 09:44:00,40.3,30.0,30.44,East,94,3.0,11.0,67,0.00,,,0.00,weatherlink.com 1.10,2013-01-27 14:44:00,
2013-01-27 09:59:00,40.8,31.0,30.44,ENE,63,5.0,11.0,67,0.00,,,0.00,weatherlink.com 1.10,2013-01-27 14:59:00,
2013-01-27 10:14:00,41.3,31.0,30.45,NE,46,1.0,13.0,66,0.00,,,0.00,weatherlink.com 1.10,2013-01-27 15:14:00,
2013-01-27 10:29:00,41.9,31.0,30.45,NE,56,5.0,11.0,66,0.00,,,0.00,weatherlink.com 1.10,2013-01-27 15:29:00,
2013-01-27 10:44:00,42.4,31.0,30.46,ENE,67,0.0,10.0,65,0.00,,,0.00,weatherlink.com 1.10,2013-01-27 15:44:00,
2013-01-27 10:59:00,42.9,32.0,30.45,ESE,105,3.0,11.0,65,0.00,,,0.00,weatherlink.com 1.10,2013-01-27 15:59:00,
2013-01-27 11:14:00,43.3,32.0,30.45,ENE,60,0.0,10.0,65,0.00,,,0.00,weatherlink.com 1.10,2013-01-27 16:14:00,
2013-01-27 11:29:00,44.3,32.0,30.45,ENE,70,0.0,8.0,63,0.00,,,0.00,weatherlink.com 1.10,2013-01-27 16:29:00,
2013-01-27 11:44:00,45.0,33.0,30.43,ENE,59,9.0,13.0,62,0.00,,,0.00,weatherlink.com 1.10,2013-01-27 16:44:00,
2013-01-27 12:00:00,45.7,33.0,30.43,SSE,158,5.0,12.0,61,0.00,,,0.00,weatherlink.com 1.10,2013-01-27 17:00:00,
2013-01-27 12:15:00,46.2,33.0,30.42,East,83,0.0,10.0,60,0.00,,,0.00,weatherlink.com 1.10,2013-01-27 17:15:00,
2013-01-27 12:29:00,47.1,33.0,30.41,SE,126,1.0,9.0,58,0.00,,,0.00,weatherlink.com 1.10,2013-01-27 17:29:00,
2013-01-27 12:45:00,47.8,33.0,30.40,East,93,0.0,13.0,57,0.00,,,0.00,weatherlink.com 1.10,2013-01-27 17:45:00,
2013-01-27 12:59:00,48.4,34.0,30.39,ESE,114,1.0,10.0,57,0.00,,,0.00,weatherlink.com 1.10,2013-01-27 17:59:00,
2013-01-27 13:29:00,49.5,33.0,30.39,ENE,78,2.0,8.0,54,0.00,,,0.00,weatherlink.com 1.10,2013-01-27 18:29:00,
2013-01-27 13:45:00,49.7,33.0,30.39,ENE,69,3.0,11.0,53,0.00,,,0.00,weatherlink.com 1.10,2013-01-27 18:45:00,
2013-01-27 14:00:00,50.0,33.0,30.38,ENE,63,3.0,14.0,52,0.00,,,0.00,weatherlink.com 1.10,2013-01-27 19:00:00,
2013-01-27 14:15:00,50.8,34.0,30.38,ENE,59,0.0,7.0,52,0.00,,,0.00,weatherlink.com 1.10,2013-01-27 19:15:00,
2013-01-27 14:30:00,51.2,33.0,30.38,NE,49,1.0,10.0,51,0.00,,,0.00,weatherlink.com 1.10,2013-01-27 19:30:00,
2013-01-27 14:45:00,51.0,33.0,30.39,SE,134,2.0,9.0,51,0.00,,,0.00,weatherlink.com 1.10,2013-01-27 19:45:00,
2013-01-27 15:00:00,51.3,34.0,30.38,East,92,1.0,7.0,52,0.00,,,0.00,weatherlink.com 1.10,2013-01-27 20:00:00,
2013-01-27 15:15:00,51.8,34.0,30.38,East,81,1.0,7.0,51,0.00,,,0.00,weatherlink.com 1.10,2013-01-27 20:15:00,
2013-01-27 15:31:00,51.5,34.0,30.37,ENE,78,1.0,9.0,51,0.00,,,0.00,weatherlink.com 1.10,2013-01-27 20:31:00,
2013-01-27 15:45:00,51.0,33.0,30.38,East,86,0.0,9.0,51,0.00,,,0.00,weatherlink.com 1.10,2013-01-27 20:45:00,
2013-01-27 16:00:00,51.0,33.0,30.38,ENE,65,0.0,7.0,51,0.00,,,0.00,weatherlink.com 1.10,2013-01-27 21:00:00,
2013-01-27 16:15:00,51.0,33.0,30.38,East,86,2.0,9.0,51,0.00,,,0.00,weatherlink.com 1.10,2013-01-27 21:15:00,
2013-01-27 16:30:00,50.8,33.0,30.38,ENE,78,0.0,9.0,51,0.00,,,0.00,weatherlink.com 1.10,2013-01-27 21:30:00,
2013-01-27 16:45:00,50.1,33.0,30.39,NE,49,6.0,11.0,52,0.00,,,0.00,weatherlink.com 1.10,2013-01-27 21:45:00,
2013-01-27 17:00:00,49.7,33.0,30.39,NE,52,5.0,8.0,52,0.00,,,0.00,weatherlink.com 1.10,2013-01-27 22:00:00,
2013-01-27 17:15:00,49.5,32.0,30.40,ENE,66,2.0,13.0,52,0.00,,,0.00,weatherlink.com 1.10,2013-01-27 22:15:00,
2013-01-27 17:30:00,49.3,33.0,30.40,ENE,63,0.0,9.0,53,0.00,,,0.00,weatherlink.com 1.10,2013-01-27 22:30:00,
2013-01-27 17:45:00,49.2,33.0,30.40,ENE,64,4.0,6.0,53,0.00,,,0.00,weatherlink.com 1.10,2013-01-27 22:45:00,
2013-01-27 18:00:00,49.0,32.0,30.39,East,90,2.0,9.0,53,0.00,,,0.00,weatherlink.com 1.10,2013-01-27 23:00:00,
2013-01-27 18:15:00,48.6,32.0,30.40,East,96,2.0,8.0,53,0.00,,,0.00,weatherlink.com 1.10,2013-01-27 23:15:00,
2013-01-27 18:32:00,48.2,32.0,30.40,ENE,71,4.0,8.0,54,0.00,,,0.00,weatherlink.com 1.10,2013-01-27 23:32:00,
2013-01-27 18:47:00,48.0,32.0,30.40,ENE,59,0.0,7.0,54,0.00,,,0.00,weatherlink.com 1.10,2013-01-27 23:47:00,
2013-01-27 19:01:00,47.8,32.0,30.41,ENE,67,0.0,9.0,54,0.00,,,0.00,weatherlink.com 1.10,2013-01-28 00:01:00,
2013-01-27 19:16:00,47.6,32.0,30.41,ENE,77,0.0,3.0,55,0.00,,,0.00,weatherlink.com 1.10,2013-01-28 00:16:00,
2013-01-27 19:31:00,47.3,32.0,30.42,ENE,78,0.0,4.0,56,0.00,,,0.00,weatherlink.com 1.10,2013-01-28 00:31:00,
2013-01-27 19:48:00,47.1,32.0,30.42,ENE,78,3.0,5.0,56,0.00,,,0.00,weatherlink.com 1.10,2013-01-28 00:48:00,
2013-01-27 20:01:00,46.9,32.0,30.41,ESE,105,1.0,8.0,56,0.00,,,0.00,weatherlink.com 1.10,2013-01-28 01:01:00,
2013-01-27 20:17:00,46.7,32.0,30.42,ENE,75,2.0,7.0,56,0.00,,,0.00,weatherlink.com 1.10,2013-01-28 01:17:00,
2013-01-27 20:32:00,46.5,32.0,30.41,ENE,61,3.0,5.0,57,0.00,,,0.00,weatherlink.com 1.10,2013-01-28 01:32:00,
2013-01-27 20:47:00,46.5,32.0,30.41,NE,55,5.0,8.0,57,0.00,,,0.00,weatherlink.com 1.10,2013-01-28 01:47:00,
2013-01-27 21:02:00,46.3,32.0,30.41,East,92,0.0,6.0,57,0.00,,,0.00,weatherlink.com 1.10,2013-01-28 02:02:00,
2013-01-27 21:19:00,46.1,31.0,30.42,ENE,69,0.0,5.0,57,0.00,,,0.00,weatherlink.com 1.10,2013-01-28 02:19:00,
2013-01-27 21:34:00,46.1,31.0,30.41,ENE,71,7.0,7.0,57,0.00,,,0.00,weatherlink.com 1.10,2013-01-28 02:34:00,
2013-01-27 21:48:00,46.0,31.0,30.42,ENE,69,2.0,10.0,57,0.00,,,0.00,weatherlink.com 1.10,2013-01-28 02:48:00,
2013-01-27 22:04:00,46.0,31.0,30.42,NE,43,0.0,6.0,57,0.00,,,0.00,weatherlink.com 1.10,2013-01-28 03:04:00,
2013-01-27 22:19:00,45.9,31.0,30.42,ENE,65,2.0,5.0,57,0.00,,,0.00,weatherlink.com 1.10,2013-01-28 03:19:00,
2013-01-27 22:34:00,45.7,31.0,30.41,East,82,3.0,6.0,57,0.00,,,0.00,weatherlink.com 1.10,2013-01-28 03:34:00,
2013-01-27 22:49:00,45.4,31.0,30.41,East,81,0.0,9.0,58,0.00,,,0.00,weatherlink.com 1.10,2013-01-28 03:49:00,
2013-01-27 23:07:00,45.1,31.0,30.40,NE,51,8.0,8.0,59,0.00,,,0.00,weatherlink.com 1.10,2013-01-28 04:07:00,
2013-01-27 23:19:00,45.0,32.0,30.41,ENE,64,3.0,5.0,60,0.00,,,0.00,weatherlink.com 1.10,2013-01-28 04:19:00,
2013-01-27 23:34:00,44.8,31.0,30.40,East,85,5.0,8.0,60,0.00,,,0.00,weatherlink.com 1.10,2013-01-28 04:34:00,
2013-01-27 23:51:00,44.5,31.0,30.39,NE,42,0.0,5.0,60,0.00,,,0.00,weatherlink.com 1.10,2013-01-28 04:51:00,